Date,TemperatureHighF,TemperatureAvgF,TemperatureLowF,DewpointHighF,DewpointAvgF,DewpointLowF,HumidityHigh,HumidityAvg,HumidityLow,PressureMaxIn,PressureMinIn,WindSpeedMaxMPH,WindSpeedAvgMPH,GustSpeedMaxMPH,PrecipitationSumIn
2013-1-1,27.0,5.9,-10.0,27.0,2.0,-15.0,99,84,75,0.00,40.00,9,5,15,0.00
2013-1-2,28.0,17.8,5.0,28.0,13.9,1.0,98,85,71,0.00,40.00,11,8,25,0.00
2013-1-3,28.0,17.9,7.0,17.0,11.1,3.0,89,75,57,0.00,40.00,11,7,20,0.00
2013-1-4,27.0,19.2,14.0,16.0,12.8,10.0,94,76,58,0.00,40.00,8,5,15,0.03
2013-1-5,17.0,13.0,7.0,15.0,9.6,4.0,97,86,61,0.00,40.00,9,6,17,0.01
2013-1-6,27.0,16.0,12.0,20.0,13.9,9.0,99,91,73,0.00,40.00,10,2,17,0.00
2013-1-7,32.0,26.8,16.0,24.0,19.3,13.0,88,73,62,0.00,40.00,14,10,24,0.00
2013-1-8,37.0,25.5,13.0,33.0,21.5,11.0,100,85,72,0.00,40.00,17,11,32,0.01
2013-1-9,26.0,22.7,19.0,22.0,18.5,16.0,89,84,77,0.00,40.00,19,11,31,0.01
2013-1-10,41.0,33.1,25.0,34.0,27.4,22.0,100,81,59,0.00,40.00,14,11,24,0.05
2013-1-11,33.0,11.6,1.0,33.0,9.8,-3.0,100,92,84,0.00,40.00,12,10,26,0.01
2013-1-12,1.0,-2.9,-10.0,-3.0,-7.4,-16.0,84,80,75,0.00,40.00,12,9,27,0.00
2013-1-13,2.0,-4.4,-10.0,-2.0,-9.4,-16.0,84,78,75,0.00,40.00,8,5,15,0.00
2013-1-14,7.0,-1.8,-8.0,2.0,-6.5,-13.0,84,80,78,0.00,40.00,8,5,14,0.00
2013-1-15,35.0,15.6,-1.0,35.0,11.8,-5.0,100,85,74,0.00,40.00,13,9,25,0.00
2013-1-16,36.0,12.8,0.0,35.0,7.4,-12.0,100,79,55,0.00,40.00,13,6,24,0.00
2013-1-17,16.0,7.9,2.0,14.0,1.3,-5.0,94,74,56,0.00,40.00,12,7,22,0.00
2013-1-18,31.0,22.9,12.0,30.0,21.3,9.0,100,93,79,0.00,40.00,14,6,26,0.02
2013-1-19,33.0,9.5,-9.0,31.0,3.6,-15.0,96,77,62,0.00,40.00,18,10,36,0.01
2013-1-20,-4.0,-8.1,-17.0,-10.0,-16.9,-26.0,76,65,51,0.00,40.00,14,9,28,0.01
2013-1-21,-4.0,-14.0,-21.0,-17.0,-23.4,-29.0,72,62,51,0.00,40.00,10,7,20,0.00
2013-1-22,6.0,-4.8,-17.0,2.0,-12.3,-24.0,86,70,54,0.00,40.00,7,3,11,0.00
2013-1-23,3.0,-7.1,-16.0,0.0,-15.4,-27.0,86,67,50,0.00,40.00,8,5,18,0.00
2013-1-24,12.0,-5.6,-16.0,7.0,-14.4,-27.0,81,65,55,0.00,40.00,20,12,31,0.00
2013-1-25,11.0,-3.5,-9.0,4.0,-12.4,-17.0,75,65,52,0.00,40.00,15,8,28,0.00
2013-1-26,18.0,8.2,-5.0,12.0,1.6,-13.0,85,74,65,0.00,40.00,18,12,27,0.00
2013-1-27,28.0,16.3,10.0,16.0,11.0,7.0,93,80,57,0.00,40.00,8,6,15,0.00
2013-1-28,27.0,19.3,12.0,26.0,17.4,11.0,100,92,77,0.00,40.00,7,4,12,0.00
2013-1-29,21.0,16.0,13.0,21.0,14.6,9.0,99,94,84,0.00,40.00,10,6,19,0.00
2013-1-30,13.0,-5.0,-18.0,9.0,-11.3,-26.0,86,73,61,0.00,40.00,12,8,22,0.00
2013-1-31,-13.0,-16.6,-21.0,-26.0,-26.8,-29.0,67,59,51,0.00,40.00,11,8,20,0.00
2013-2-1,4.0,-7.9,-23.0,-3.0,-15.0,-31.0,77,70,65,0.00,40.00,12,6,17,0.00
2013-2-2,16.0,4.0,-5.0,11.0,-0.7,-10.0,86,80,74,0.00,40.00,11,7,23,0.00
2013-2-3,8.0,6.0,2.0,4.0,1.3,-2.0,84,81,75,0.00,40.00,10,6,17,0.00
2013-2-4,29.0,15.1,2.0,28.0,12.2,-2.0,97,88,82,0.00,40.00,14,8,24,0.00
2013-2-5,29.0,11.6,5.0,28.0,7.5,1.0,99,83,68,0.00,40.00,9,6,20,0.00
2013-2-6,23.0,16.9,10.0,21.0,14.9,7.0,98,91,86,0.00,40.00,11,8,21,0.00
2013-2-7,18.0,10.8,3.0,11.0,6.4,0.0,93,83,62,0.00,40.00,9,6,17,0.00
2013-2-8,22.0,18.1,11.0,22.0,17.4,9.0,100,97,92,0.00,40.00,13,9,22,0.00
2013-2-9,25.0,22.6,19.0,25.0,22.6,19.0,100,100,100,0.00,40.00,8,1,14,0.00
2013-2-10,26.0,20.7,19.0,26.0,20.7,19.0,100,100,99,0.00,40.00,0,0,0,0.00
2013-2-11,23.0,18.7,17.0,19.0,15.3,12.0,99,87,69,0.00,40.00,0,0,0,0.00
2013-2-12,32.0,23.0,13.0,26.0,18.2,11.0,91,82,69,0.00,40.00,10,5,19,0.00
2013-2-13,30.0,24.5,19.0,28.0,23.4,19.0,100,95,84,0.00,40.00,7,3,12,0.01
2013-2-14,22.0,14.2,7.0,22.0,10.4,4.0,100,86,61,0.00,40.00,9,6,16,0.03
2013-2-15,18.0,10.0,0.0,11.0,6.1,-3.0,91,84,69,0.00,40.00,7,4,14,0.01
2013-2-16,21.0,15.1,6.0,21.0,12.2,3.0,100,88,75,0.00,40.00,11,9,17,0.00
2013-2-17,41.0,28.9,17.0,33.0,26.4,17.0,100,91,67,0.00,40.00,15,9,25,0.02
2013-2-18,22.0,5.8,-9.0,22.0,2.4,-15.0,100,86,75,0.00,40.00,13,11,29,0.01
2013-2-19,-3.0,-10.4,-17.0,-12.0,-18.6,-24.0,75,66,59,0.00,40.00,9,6,17,0.00
2013-2-20,6.0,-2.9,-12.0,-2.0,-11.6,-21.0,73,65,57,0.00,40.00,17,10,26,0.00
2013-2-21,17.0,10.5,6.0,6.0,2.5,-2.0,78,70,60,0.00,40.00,17,11,26,0.00
2013-2-22,23.0,13.0,2.0,8.0,2.4,-2.0,86,63,47,0.00,40.00,7,3,14,0.00
2013-2-23,26.0,16.2,7.0,18.0,10.6,1.0,93,79,66,0.00,40.00,12,9,18,0.00
2013-2-24,26.0,17.6,10.0,23.0,15.2,8.0,98,90,81,0.00,40.00,11,7,17,0.00
2013-2-25,38.0,26.4,11.0,25.0,18.6,9.0,98,73,54,0.00,40.00,13,8,20,0.00
2013-2-26,38.0,25.6,18.0,18.0,12.5,5.0,90,59,38,0.00,40.00,10,6,15,0.00
2013-2-27,29.0,20.0,10.0,22.0,16.5,8.0,97,87,73,0.00,40.00,9,6,22,0.00
2013-2-28,25.0,17.6,10.0,19.0,14.0,9.0,98,86,73,0.00,40.00,7,5,12,0.00
2013-3-1,26.0,11.2,-3.0,12.0,5.0,-7.0,95,77,54,0.00,40.00,9,3,13,0.00
2013-3-2,33.0,21.4,10.0,26.0,17.3,6.0,99,85,73,0.00,40.00,14,9,21,0.00
2013-3-3,28.0,23.4,20.0,24.0,22.0,19.0,100,95,77,0.00,40.00,14,9,27,0.00
2013-3-4,24.0,22.6,20.0,24.0,22.6,20.0,100,100,100,0.00,40.00,14,11,25,0.00
2013-3-5,20.0,15.3,5.0,20.0,14.2,2.0,100,95,89,0.00,40.00,9,5,18,0.00
2013-3-6,17.0,11.8,3.0,15.0,9.7,0.0,96,91,87,0.00,40.00,13,6,20,0.00
2013-3-7,22.0,16.9,11.0,22.0,15.7,9.0,100,95,89,0.00,40.00,15,11,25,0.00
2013-3-8,25.0,22.0,17.0,24.0,20.2,17.0,100,93,80,0.00,40.00,7,4,14,0.02
2013-3-9,30.0,22.0,13.0,24.0,19.7,10.0,99,91,69,0.00,40.00,9,5,20,0.02
2013-3-10,23.0,13.6,6.0,13.0,8.3,3.0,93,80,64,0.00,40.00,10,5,18,0.00
2013-3-11,22.0,14.1,6.0,19.0,10.9,3.0,94,87,70,0.00,40.00,9,5,17,0.00
2013-3-12,24.0,16.2,3.0,18.0,12.0,0.0,98,84,64,0.00,40.00,12,5,21,0.03
2013-3-13,22.0,8.9,-6.0,20.0,4.5,-10.0,92,82,66,0.00,40.00,18,8,28,0.01
2013-3-14,33.0,22.6,13.0,24.0,19.2,13.0,99,87,69,0.00,40.00,15,6,21,0.00
2013-3-15,19.0,8.7,-5.0,17.0,5.8,-9.0,98,87,80,0.00,40.00,9,7,19,0.00
2013-3-16,11.0,-0.9,-13.0,2.0,-7.2,-19.0,84,74,65,0.00,40.00,9,4,15,0.00
2013-3-17,17.0,5.5,-4.0,16.0,0.7,-9.0,97,80,70,0.00,40.00,19,13,30,0.00
2013-3-18,19.0,10.2,-1.0,19.0,6.7,-5.0,100,85,75,0.00,40.00,14,11,28,0.00
2013-3-19,15.0,3.5,-8.0,6.0,-2.5,-13.0,84,76,64,0.00,40.00,11,6,20,0.03
2013-3-20,17.0,3.4,-10.0,4.0,-4.3,-15.0,84,71,53,0.00,40.00,6,3,13,0.09
2013-3-21,21.0,7.6,-6.0,7.0,-0.7,-11.0,84,69,53,0.00,40.00,8,4,15,0.01
2013-3-22,26.0,10.7,-10.0,11.0,1.7,-15.0,81,68,50,0.00,40.00,5,3,11,0.00
2013-3-23,27.0,17.2,9.0,17.0,10.9,6.0,98,77,56,0.00,40.00,7,4,12,0.00
2013-3-24,28.0,19.1,12.0,20.0,16.1,11.0,99,89,70,0.00,40.00,7,5,14,0.03
2013-3-25,26.0,16.4,4.0,16.0,11.1,2.0,97,81,58,0.00,40.00,9,4,15,0.02
2013-3-26,23.0,10.0,-5.0,12.0,4.8,-10.0,92,80,59,0.00,40.00,8,4,13,0.00
2013-3-27,33.0,16.6,-1.0,22.0,11.3,-5.0,99,81,61,0.00,40.00,11,5,18,0.00
2013-3-28,36.0,27.0,15.0,24.0,21.0,15.0,100,80,61,0.00,40.00,5,3,8,0.00
2013-3-29,38.0,23.9,14.0,33.0,22.4,14.0,100,94,77,0.00,40.00,7,3,12,0.00
2013-3-30,39.0,30.0,21.0,32.0,27.6,21.0,100,92,67,0.00,40.00,11,5,17,0.00
2013-3-31,30.0,23.2,9.0,30.0,15.1,6.0,100,72,51,0.00,40.00,11,8,20,0.00
2013-4-1,28.0,14.0,2.0,14.0,7.0,-1.0,92,75,55,0.00,40.00,8,4,13,0.00
2013-4-2,30.0,20.2,8.0,16.0,11.1,6.0,94,70,47,0.00,40.00,14,5,22,0.00
2013-4-3,44.0,29.0,17.0,34.0,22.1,8.0,96,76,63,0.00,40.00,21,14,33,0.00
2013-4-4,35.0,27.5,18.0,28.0,20.9,14.0,99,77,56,0.00,40.00,10,5,19,0.00
2013-4-5,31.0,24.0,16.0,29.0,19.0,7.0,100,82,65,0.00,40.00,15,11,27,0.00
2013-4-6,34.0,30.3,27.0,31.0,29.2,27.0,100,96,88,0.00,40.00,9,5,17,0.00
2013-4-7,34.0,30.8,28.0,33.0,29.4,26.0,100,95,76,0.00,40.00,11,5,17,0.03
2013-4-8,30.0,20.0,9.0,30.0,14.8,6.0,100,80,58,0.00,40.00,10,8,21,0.02
2013-4-9,28.0,13.6,2.0,16.0,7.2,0.0,95,77,50,0.00,40.00,8,5,17,0.00
2013-4-10,36.0,23.7,14.0,22.0,16.5,12.0,97,76,45,0.00,40.00,8,5,14,0.00
2013-4-11,34.0,27.8,23.0,28.0,21.3,14.0,100,77,56,0.00,40.00,13,8,21,0.00
2013-4-12,34.0,28.6,24.0,31.0,27.6,24.0,100,96,81,0.00,40.00,7,4,17,0.03
2013-4-13,35.0,25.2,14.0,25.0,20.7,14.0,100,84,57,0.00,40.00,11,6,19,0.01
2013-4-14,33.0,27.9,22.0,30.0,23.7,20.0,100,85,64,0.00,40.00,13,10,26,0.01
2013-4-15,32.0,29.1,24.0,32.0,29.1,24.0,100,100,100,0.00,40.00,8,0,19,0.21
2013-4-16,35.0,28.1,23.0,30.0,24.9,22.0,100,89,66,0.00,40.00,9,2,15,0.02
2013-4-17,36.0,27.4,21.0,26.0,23.6,21.0,100,86,66,0.00,40.00,8,4,14,0.02
2013-4-18,38.0,27.5,18.0,24.0,20.7,14.0,100,77,52,0.00,40.00,10,6,18,0.00
2013-4-19,35.0,25.9,17.0,19.0,16.2,12.0,86,67,46,0.00,40.00,10,5,18,0.00
2013-4-20,34.0,25.5,16.0,24.0,17.5,14.0,94,73,48,0.00,40.00,15,8,22,0.00
2013-4-21,41.0,31.9,28.0,37.0,29.4,24.0,100,91,70,0.00,40.00,15,11,25,0.01
2013-4-22,35.0,28.6,20.0,27.0,21.9,17.0,97,77,55,0.00,40.00,8,6,16,0.01
2013-4-23,39.0,27.4,15.0,27.0,20.2,14.0,100,76,51,0.00,40.00,12,5,17,0.00
2013-4-24,37.0,28.9,22.0,32.0,25.7,20.0,100,88,66,0.00,40.00,15,7,27,0.03
2013-4-25,40.0,30.1,16.0,36.0,25.4,16.0,100,84,65,0.00,40.00,17,11,28,0.03
2013-4-26,55.0,45.4,33.0,39.0,34.5,30.0,100,70,43,0.00,40.00,13,6,20,0.00
2013-4-27,68.0,53.3,44.0,44.0,36.8,31.0,69,54,33,0.00,40.00,14,10,23,0.00
2013-4-28,53.0,48.6,36.0,39.0,34.1,30.0,81,58,46,0.00,40.00,10,6,20,0.00
2013-4-29,54.0,43.1,31.0,49.0,33.3,24.0,100,70,44,0.00,40.00,17,9,27,0.24
2013-4-30,47.0,39.8,27.0,47.0,34.6,21.0,100,82,63,0.00,40.00,19,12,35,0.22
2013-5-1,42.0,32.5,25.0,27.0,23.2,20.0,93,70,46,0.00,40.00,12,8,23,0.00
2013-5-2,42.0,33.1,22.0,31.0,24.9,21.0,100,75,44,0.00,40.00,8,4,12,0.00
2013-5-3,48.0,35.0,24.0,30.0,26.7,18.0,100,76,32,0.00,40.00,8,5,14,0.00
2013-5-4,54.0,41.9,27.0,36.0,30.5,27.0,100,69,39,0.00,40.00,8,4,15,0.00
2013-5-5,61.0,46.8,30.0,42.0,33.2,30.0,100,66,34,0.00,40.00,6,3,9,0.00
2013-5-6,71.0,56.8,40.0,36.0,31.6,27.0,80,43,20,0.00,40.00,7,4,11,0.00
2013-5-7,73.0,60.7,47.0,47.0,38.0,29.0,86,46,27,0.00,40.00,10,6,18,0.00
2013-5-8,62.0,50.2,39.0,41.0,35.9,28.0,88,59,38,0.00,40.00,10,7,21,0.00
2013-5-9,59.0,45.1,31.0,29.0,25.8,22.0,84,51,25,0.00,40.00,9,6,15,0.00
2013-5-10,63.0,49.1,38.0,36.0,27.3,-99.9,67,45,32,0.00,40.00,13,7,24,0.00
2013-5-11,51.0,40.6,31.0,35.0,23.6,16.0,100,57,26,0.00,40.00,10,7,22,0.00
2013-5-12,65.0,48.7,31.0,25.0,20.3,17.0,70,37,17,0.00,40.00,12,6,19,0.00
2013-5-13,84.0,67.4,53.0,44.0,33.3,21.0,43,30,19,0.00,40.00,18,12,29,0.00
2013-5-14,70.0,63.8,56.0,59.0,45.6,38.0,95,54,35,0.00,40.00,19,9,36,0.15
2013-5-15,76.0,62.4,46.0,45.0,39.5,34.0,80,47,23,0.00,40.00,7,4,16,0.08
2013-5-16,65.0,51.6,51.0,52.0,22.4,-99.9,94,70,44,0.00,40.00,10,7,20,0.35
2013-5-17,73.0,59.6,51.0,55.0,43.5,-99.9,95,69,43,0.00,40.00,11,8,20,0.09
2013-5-18,66.0,57.8,51.0,62.0,56.1,51.0,100,94,78,0.00,40.00,14,7,24,1.12
2013-5-19,54.0,51.1,49.0,54.0,50.8,49.0,100,99,97,0.00,40.00,12,10,29,0.99
2013-5-20,51.0,49.5,47.0,50.0,48.8,46.0,100,97,93,0.00,40.00,14,11,31,1.20
2013-5-21,51.0,46.0,42.0,47.0,43.5,40.0,97,91,80,0.00,40.00,13,9,27,0.24
2013-5-22,69.0,55.6,43.0,44.0,40.6,36.0,96,62,32,0.00,40.00,9,6,22,0.02
2013-5-23,64.0,55.5,45.0,41.0,36.0,28.0,83,51,29,0.00,40.00,11,8,20,0.00
2013-5-24,63.0,53.8,47.0,50.0,40.5,27.0,97,63,37,0.00,40.00,15,11,29,0.01
2013-5-25,71.0,58.0,50.0,57.0,51.8,48.0,97,82,54,0.00,40.00,14,9,26,0.01
2013-5-26,63.0,55.1,51.0,52.0,49.4,48.0,93,81,67,0.00,40.00,18,11,33,0.00
2013-5-27,60.0,55.0,50.0,57.0,51.4,47.0,97,88,78,0.00,40.00,13,7,22,0.11
2013-5-28,72.0,62.7,55.0,60.0,55.0,52.0,100,78,51,0.00,40.00,13,8,21,0.11
2013-5-29,76.0,64.5,53.0,57.0,54.3,52.0,97,72,46,0.00,40.00,8,5,15,0.01
2013-5-30,69.0,60.7,55.0,65.0,58.8,54.0,99,94,82,0.00,40.00,10,7,20,0.49
2013-5-31,62.0,54.8,47.0,61.0,53.6,45.0,100,96,90,0.00,40.00,10,8,27,0.54
2013-6-1,58.0,50.5,46.0,46.0,43.3,41.0,95,77,58,0.00,40.00,11,8,27,0.01
2013-6-2,63.0,51.2,41.0,42.0,38.6,34.0,88,65,38,0.00,40.00,6,4,11,0.00
2013-6-3,56.0,51.3,47.0,47.0,38.6,31.0,92,63,48,0.00,40.00,12,8,23,0.26
2013-6-4,52.0,49.8,49.0,51.0,47.1,45.0,99,90,83,0.00,40.00,15,10,26,0.98
2013-6-5,68.0,56.9,49.0,55.0,48.4,40.0,100,77,39,0.00,40.00,9,6,17,0.20
2013-6-6,69.0,59.0,46.0,55.0,43.7,37.0,100,62,34,0.00,40.00,8,4,16,0.01
2013-6-7,76.0,64.0,53.0,51.0,45.9,38.0,83,56,28,0.00,40.00,12,6,20,0.00
2013-6-8,74.0,63.4,53.0,54.0,49.9,47.0,87,64,40,0.00,40.00,14,11,25,0.00
2013-6-9,68.0,60.5,55.0,59.0,55.1,52.0,98,83,69,0.00,40.00,9,5,15,0.22
2013-6-10,76.0,63.3,55.0,66.0,57.5,50.0,100,83,55,0.00,40.00,10,6,16,0.19
2013-6-11,79.0,65.8,50.0,55.0,50.0,46.0,98,62,34,0.00,40.00,7,3,10,0.06
2013-6-12,70.0,63.1,56.0,55.0,51.2,46.0,78,66,48,0.00,40.00,7,4,13,0.00
2013-6-13,77.0,65.9,53.0,56.0,51.8,49.0,94,64,41,0.00,40.00,9,5,17,0.00
2013-6-14,76.0,68.0,62.0,62.0,56.2,50.0,75,66,57,0.00,40.00,15,8,26,0.00
2013-6-15,76.0,66.4,53.0,53.0,47.7,41.0,82,54,30,0.00,40.00,13,8,29,0.00
2013-6-16,75.0,66.3,56.0,56.0,51.8,48.0,93,61,45,0.00,40.00,11,7,23,0.00
2013-6-17,71.0,61.0,55.0,60.0,55.9,52.0,97,84,65,0.00,40.00,7,4,13,0.00
2013-6-18,78.0,65.2,53.0,62.0,54.9,51.0,100,73,47,0.00,40.00,6,3,11,0.00
2013-6-19,85.0,72.7,58.0,65.0,55.5,49.0,86,57,38,0.00,40.00,11,5,18,0.02
2013-6-20,71.0,66.9,63.0,66.0,59.8,56.0,96,78,61,0.00,40.00,10,8,18,0.72
2013-6-22,80.0,75.1,69.0,67.0,64.8,63.0,91,71,61,0.00,40.00,8,5,13,0.00
2013-6-23,72.0,65.5,59.0,67.0,59.7,54.0,96,82,64,0.00,40.00,13,8,25,0.04
2013-6-24,85.0,71.5,58.0,67.0,58.3,53.0,87,66,42,0.00,40.00,8,6,15,0.01
2013-6-25,85.0,74.2,65.0,74.0,68.1,62.0,99,82,65,0.00,40.00,11,8,25,0.45
2013-6-26,82.0,73.1,62.0,69.0,62.9,56.0,100,74,42,0.00,40.00,9,5,16,0.45
2013-6-27,80.0,71.6,63.0,63.0,58.0,52.0,87,64,44,0.00,40.00,12,7,22,0.00
2013-6-28,78.0,70.8,64.0,62.0,58.6,56.0,86,66,51,0.00,40.00,10,7,21,0.00
2013-6-29,80.0,70.6,64.0,65.0,59.6,50.0,89,70,52,0.00,40.00,5,4,11,0.00
2013-6-30,82.0,70.8,59.0,59.0,54.9,51.0,84,60,36,0.00,40.00,5,3,9,0.00
2013-7-1,83.0,72.0,58.0,62.0,55.9,50.0,84,59,34,0.00,40.00,5,3,8,0.00
2013-7-2,85.0,72.8,60.0,63.0,55.4,49.0,78,56,37,0.00,40.00,5,3,8,0.00
2013-7-3,86.0,76.0,64.0,61.0,54.6,49.0,75,49,33,0.00,40.00,10,7,17,0.00
2013-7-4,85.0,73.9,65.0,71.0,61.8,53.0,94,67,55,0.00,40.00,12,7,21,0.00
2013-7-5,86.0,74.5,65.0,68.0,61.7,53.0,98,69,35,0.00,40.00,10,3,25,0.06
2013-7-6,83.0,71.5,64.0,69.0,64.7,57.0,94,80,57,0.00,40.00,7,5,15,0.06
2013-7-7,78.0,71.6,62.0,68.0,60.9,58.0,91,70,54,0.00,40.00,7,5,18,0.00
2013-7-8,87.0,71.7,60.0,68.0,61.3,57.0,93,72,44,0.00,40.00,9,5,15,0.00
2013-7-9,75.0,65.0,61.0,64.0,58.7,52.0,98,81,63,0.00,40.00,7,5,25,0.36
2013-7-10,80.0,65.8,53.0,61.0,53.6,-99.9,98,70,47,0.00,40.00,7,3,13,0.00
2013-7-11,87.0,73.9,58.0,71.0,61.6,52.0,86,67,53,0.00,40.00,15,10,26,0.00
2013-7-12,78.0,73.0,67.0,71.0,67.7,65.0,99,84,68,0.00,40.00,14,6,23,0.19
2013-7-13,86.0,75.3,64.0,71.0,66.6,60.0,100,77,50,0.00,40.00,8,5,24,0.04
2013-7-14,77.0,68.7,62.0,67.0,60.3,56.0,96,76,58,0.00,40.00,10,6,21,0.00
2013-7-15,78.0,69.7,63.0,71.0,61.8,52.0,86,76,66,0.00,40.00,13,7,21,0.00
2013-7-16,83.0,76.0,69.0,72.0,65.0,59.0,80,69,62,0.00,40.00,8,6,16,0.00
2013-7-17,78.0,70.8,65.0,63.0,57.3,50.0,82,63,50,0.00,40.00,8,6,17,0.01
2013-7-18,84.0,74.2,64.0,72.0,65.0,56.0,94,74,61,0.00,40.00,9,6,22,0.01
2013-7-19,81.0,69.8,61.0,65.0,61.2,57.0,94,76,53,0.00,40.00,11,6,24,0.04
2013-7-20,70.0,59.9,55.0,58.0,48.6,-99.9,89,69,51,0.00,40.00,8,5,18,0.02
2013-7-21,80.0,66.6,53.0,65.0,55.5,48.0,85,69,52,0.00,40.00,14,8,25,0.02
2013-7-22,69.0,64.5,60.0,64.0,57.0,51.0,92,77,62,0.00,40.00,9,6,22,0.02
2013-7-23,72.0,62.0,52.0,59.0,53.0,50.0,96,74,51,0.00,40.00,4,2,9,0.00
2013-7-24,80.0,66.8,54.0,64.0,55.3,50.0,88,68,46,0.00,40.00,8,5,17,0.00
2013-7-25,73.0,64.0,55.0,62.0,56.0,50.0,97,77,51,0.00,40.00,11,7,26,0.00
2013-7-26,67.0,59.8,54.0,52.0,49.2,44.0,91,70,49,0.00,40.00,10,7,22,0.00
2013-7-27,71.0,60.5,46.0,55.0,46.2,42.0,97,62,39,0.00,40.00,7,4,16,0.00
2013-7-28,75.0,63.3,51.0,50.0,46.4,43.0,85,57,34,0.00,40.00,7,4,12,0.00
2013-7-29,72.0,62.4,54.0,61.0,52.1,45.0,96,70,55,0.00,40.00,14,10,23,0.07
2013-7-30,74.0,63.4,55.0,62.0,58.2,55.0,100,85,58,0.00,40.00,6,3,11,0.07
2013-7-31,74.0,63.0,53.0,58.0,52.7,47.0,97,72,43,0.00,40.00,8,5,17,0.01
2013-8-1,76.0,63.7,50.0,57.0,52.6,49.0,97,70,46,0.00,40.00,7,4,14,0.00
2013-8-2,76.0,65.8,53.0,58.0,52.3,48.0,97,64,37,0.00,40.00,5,3,10,0.00
2013-8-3,74.0,65.7,56.0,54.0,48.8,44.0,80,56,35,0.00,40.00,7,4,12,0.00
2013-8-4,74.0,65.6,59.0,61.0,52.1,43.0,86,62,53,0.00,40.00,12,8,20,0.00
2013-8-5,77.0,63.4,57.0,61.0,57.1,52.0,95,82,45,0.00,40.00,7,5,15,0.00
2013-8-6,69.0,61.8,53.0,63.0,55.9,49.0,97,82,68,0.00,40.00,7,4,16,0.26
2013-8-7,72.0,61.6,50.0,55.0,51.3,47.0,98,71,46,0.00,40.00,7,4,13,0.25
2013-8-8,72.0,60.5,50.0,58.0,52.2,45.0,99,76,54,0.00,40.00,8,5,18,0.00
2013-8-9,67.0,59.2,52.0,56.0,51.6,46.0,90,77,65,0.00,40.00,9,6,19,0.00
2013-8-10,71.0,61.2,50.0,58.0,54.6,49.0,99,80,58,0.00,40.00,6,4,11,0.00
2013-8-11,76.0,64.2,54.0,58.0,53.8,51.0,98,72,46,0.00,40.00,6,4,11,0.00
2013-8-21,80.0,69.5,58.0,60.0,52.6,46.0,89,58,32,0.00,40.00,7,4,15,0.00
2013-8-22,79.0,69.3,51.0,52.0,44.6,37.0,86,44,24,0.00,40.00,8,4,14,0.00
2013-8-23,83.0,71.5,57.0,68.0,56.1,46.0,80,59,44,0.00,40.00,14,11,27,0.00
2013-8-24,87.0,77.2,70.0,76.0,70.0,67.0,94,79,59,0.00,40.00,12,8,22,0.00
2013-8-25,92.0,78.5,68.0,71.0,65.4,58.0,94,67,37,0.00,40.00,6,3,10,0.00
2013-8-26,83.0,76.7,66.0,73.0,66.3,58.0,89,71,51,0.00,40.00,12,5,24,0.00
2013-8-27,90.0,71.2,63.0,69.0,64.5,62.0,98,82,44,0.00,40.00,5,2,9,0.00
2013-9-24,75.0,61.2,51.0,54.0,47.5,39.0,94,66,29,0.00,40.00,6,4,12,0.00
2013-9-25,75.0,65.2,54.0,55.0,50.8,40.0,82,61,44,0.00,40.00,19,12,32,0.00
2013-9-26,68.0,60.8,50.0,60.0,53.4,44.0,93,78,57,0.00,40.00,13,9,25,0.13
2013-9-27,56.0,52.0,48.0,50.0,46.2,42.0,94,81,75,0.00,40.00,9,5,19,0.01
2013-9-28,65.0,53.2,49.0,50.0,45.2,38.0,97,77,40,0.00,40.00,8,6,17,0.52
2013-9-29,75.0,58.2,44.0,47.0,42.1,37.0,85,58,29,0.00,40.00,13,8,25,0.02
2013-9-30,74.0,61.6,47.0,48.0,43.6,39.0,87,54,31,0.00,40.00,16,5,31,0.00
2013-12-26,28.0,20.1,13.0,24.0,17.1,10.0,92,88,86,0.00,40.00,10,7,19,0.00
2013-12-27,38.0,32.6,24.0,32.0,28.1,20.0,95,83,74,0.00,40.00,12,8,23,0.04
2013-12-28,32.0,6.3,-12.0,31.0,2.0,-20.0,98,82,66,0.00,40.00,12,9,27,0.01
2013-12-29,-6.0,-10.6,-19.0,-14.0,-18.9,-27.0,71,65,60,0.00,40.00,7,5,20,0.00
2013-12-30,-2.0,-6.1,-17.0,-7.0,-13.3,-25.0,77,70,59,0.00,40.00,7,4,12,0.00
2013-12-31,-12.0,-16.5,-20.0,-22.0,-25.6,-28.0,69,62,50,0.00,40.00,5,3,10,0.00
2014-1-1,-4.0,-11.3,-16.0,-14.0,-19.7,-23.0,70,65,58,0.00,40.00,5,3,10,0.00